Regional Weather Roundup
Issued by NWS

Home | Current Version | Previous Version | Text Only | Print | Product List | Glossary On
Versions: 1 2 3 4 5 6 7 8 9 10 11 12 13 14 15 16 17 18 19 20 21 22 23 24 25 26 27 28 29 30 31 32 33 34 35 36 37 38 39 40 41 42 43 44 45 46 47 48 49 50
015
ASUS43 KLMK 221802
RWRKY
KENTUCKY REGIONAL WEATHER ROUNDUP
NATIONAL WEATHER SERVICE LOUISVILLE KY
100 PM EST WED NOV 22 2017

NOTE "FAIR" INDICATES FEW OR NO CLOUDS BELOW 12,000 FEET
WITH NO SIGNIFICANT WEATHER AND/OR OBSTRUCTIONS TO VISIBILITY.

KYZ001>023-026-027-061>063-070>075-221900-
WESTERN AND SOUTH CENTRAL KENTUCKY

CITY           SKY/WX    TMP DP  RH WIND       PRES   REMARKS
PADUCAH        SUNNY     41  20  43 NE8       30.32F
HENDERSON      SUNNY     38  23  55 NW10      30.34F WCI  31
OWENSBORO      SUNNY     40  23  50 N8        30.32F WCI  34
HOPKINSVILLE   SUNNY     42  24  49 N7        30.29F
BOWLING GREEN  SUNNY     43  25  49 NW8       30.29F
GLASGOW        NOT AVBL
$$

KYZ024-025-028>034-038-045-046-053-221900-
NORTH CENTRAL KENTUCKY

CITY           SKY/WX    TMP DP  RH WIND       PRES   REMARKS
LOUISVILLE/SDF MOSUNNY   42  24  49 CALM      30.29F
LOUISVILLE/LOU SUNNY     41  24  51 N10       30.31F
FORT KNOX      SUNNY     40  22  49 N9        30.26F WCI  34
$$

KYZ035>037-039>044-047>052-055>060-089>105-221900-
NORTHEAST KENTUCKY

CITY           SKY/WX    TMP DP  RH WIND       PRES   REMARKS
LEXINGTON      SUNNY     41  25  53 VRB7      30.26F
COVINGTON      CLOUDY    38  27  64 N8        30.28F WCI  32
FRANKFORT      SUNNY     42  22  44 NE6       30.27F
$$

KYZ054-064>069-076>088-106>120-221900-
SOUTHEAST KENTUCKY

CITY           SKY/WX    TMP DP  RH WIND       PRES   REMARKS
JACKSON        SUNNY     43  27  53 CALM      30.21F
LONDON         SUNNY     42  25  50 N8        30.22F
SOMERSET       SUNNY     41  27  56 N8        30.26F
MIDDLESBORO    SUNNY     47  29  49 N10       30.20F
MONTICELLO     CLEAR     42  28  57 VRB6G24   30.26F
$$





USA.gov is the U.S. government's official web portal to all federal, state and local government web resources and services.